[[{"header":{"parameterUnit":"m.s-1","parameterCategory":1,"la1":30.2992,"la2":30.254,"lo1":-89.0895,"lo2":-89.0443,"dy":0.0025,"dx":0.0025,"nx":19,"ny":19,"refTime":"2026-04-03T03:00:00:Z","depth":0,"parameterNumber":2,"parameterNumberName":"U-component_of_WINDS"},"data":[0,0,0,-4.7389,-4.7393,-4.7561,-4.7562,-4.7779,-4.7781,0,0,0,0,0,0,0,0,0,0,0,-4.7341,-4.7342,-4.7389,-4.7393,-4.7561,-4.7562,-4.7778,-4.7781,0,0,0,0,0,0,0,0,0,0,0,-4.734,-4.7342,-4.7344,-4.7394,-4.7561,-4.7562,-4.7778,-4.765,0,0,0,0,0,0,0,0,0,0,-4.7487,-4.7443,-4.7342,-4.7344,-4.7395,-4.7561,-4.7562,-4.7644,-4.7658,-4.7704,0,-4.7744,0,-4.7766,-4.7795,-4.7796,0,0,0,-4.7392,-4.7432,-4.7476,-4.7344,-4.7397,-4.756,-4.7485,-4.7652,-4.7668,-4.7722,-4.7747,-4.7755,-4.777,-4.7797,-4.7798,-4.8064,-4.8065,0,0,-4.7383,-4.7372,-4.7465,-4.7486,-4.7461,-4.748,-4.749,-4.7662,-4.7688,-4.7748,-4.776,-4.7773,-4.7798,-4.78,-4.8063,-4.8064,0,0,0,-4.7357,-4.7365,-4.7405,-4.7477,-4.7508,-4.7485,-4.7497,-4.768,-4.7694,-4.7763,-4.7776,-4.7799,-4.7802,-4.8061,-4.8063,-4.8115,0,0,0,-4.7351,-4.735,-4.7401,-4.7396,-4.7504,-4.7596,-4.7512,-4.7682,-4.7702,-4.7775,-4.7799,-4.7804,-4.806,-4.8062,-4.8111,-4.814,0,0,0,-4.733,-4.7348,-4.7372,-4.7395,-4.7467,-4.7594,-4.7617,-4.7687,-4.771,-4.7796,-4.7805,-4.8059,-4.8062,-4.8107,-4.8134,-4.8206,0,0,0,-4.7303,-4.7416,-4.7373,-4.7505,-4.7466,-4.7625,-4.7616,-4.7736,-4.7816,-4.7801,-4.806,-4.8063,-4.8105,-4.813,-4.8202,-4.8263,-4.8288,0,0,-4.7439,-4.7432,-4.7511,-4.7477,-4.7642,-4.7601,-4.7773,-4.7857,-4.7876,-4.8,-4.8007,-4.8112,-4.8134,-4.8205,-4.8437,-4.8457,0,0,0,-4.755,-4.7606,-4.7653,-4.7728,-4.7796,-4.7856,-4.7916,-4.7947,-4.8054,-4.7937,-4.816,-4.8173,-4.8215,-4.8245,-4.8262,-4.8298,-4.8077,-4.8077,-4.8076,-4.7725,-4.7744,-4.7875,-4.7915,-4.7989,-4.805,-4.8112,-4.8164,-4.8161,-4.8214,-4.8249,-4.8388,-4.8422,-4.8435,-4.8473,-4.8286,-4.8286,-4.8286,-4.8286,-4.7924,-4.8006,-4.8002,-4.8127,-4.8147,-4.8252,-4.8317,-4.8311,-4.8412,-4.8362,-4.8401,-4.8341,-4.8456,-4.849,-4.829,-4.829,-4.8289,-4.8289,-4.8289,-4.8038,-4.8081,-4.8119,-4.8231,-4.8317,-4.8354,-4.8452,-4.8467,-4.8482,-4.852,-4.8559,-4.8558,-4.8557,-4.8538,-4.8539,-4.8539,-4.854,-4.854,-4.854,-4.814,-4.8181,-4.8261,-4.8345,-4.8397,-4.8467,-4.8531,-4.8583,-4.8643,-4.8646,-4.8647,-4.8637,-4.8465,-4.842,-4.8548,-4.8547,-4.8546,-4.8545,-4.8544,-4.833,-4.8291,-4.8414,-4.8466,-4.8566,-4.865,-4.867,-4.8773,-4.8818,-4.8866,-4.8851,-4.8722,-4.8714,-4.8701,-4.8663,-4.8847,-4.8847,-4.8847,-4.8847,-4.8424,-4.8424,-4.8554,-4.8636,-4.8719,-4.875,-4.8889,-4.8942,-4.899,-4.9019,-4.8996,-4.8949,-4.8935,-4.8936,-4.8918,-4.8883,-4.9118,-4.9118,-4.9118,-4.8542,-4.855,-4.8665,-4.8712,-4.8792,-4.8861,-4.8993,-4.9087,-4.9134,-4.913,-4.9042,-4.9031,-4.8955,-4.8929,-4.8918,-4.889,-4.8826,0,0]},{"header":{"parameterUnit":"m.s-1","parameterCategory":1,"la1":30.2992,"la2":30.254,"lo1":-89.0895,"lo2":-89.0443,"dy":0.0025,"dx":0.0025,"nx":19,"ny":19,"refTime":"2026-04-03T03:00:00:Z","depth":0,"parameterNumber":3,"parameterNumberName":"V-component_of_WINDS"},"data":[0,0,0,3.4058,3.4061,3.4174,3.4175,3.4313,3.4314,0,0,0,0,0,0,0,0,0,0,0,3.4022,3.4023,3.4058,3.4061,3.4174,3.4175,3.4313,3.4314,0,0,0,0,0,0,0,0,0,0,0,3.4021,3.4022,3.4023,3.4061,3.4174,3.4175,3.4312,3.4229,0,0,0,0,0,0,0,0,0,0,3.4119,3.4083,3.4022,3.4023,3.4062,3.4174,3.4175,3.4225,3.4234,3.4259,0,3.4282,0,3.4301,3.4323,3.4324,0,0,0,3.4062,3.4076,3.4109,3.4024,3.4063,3.4174,3.4123,3.423,3.424,3.4271,3.4284,3.4289,3.4303,3.4324,3.4325,3.4471,3.4471,0,0,3.4056,3.404,3.4102,3.4116,3.41,3.412,3.4127,3.4236,3.4248,3.4284,3.4293,3.4305,3.4325,3.4326,3.447,3.4471,0,0,0,3.4037,3.4035,3.4067,3.411,3.4131,3.4123,3.4131,3.4244,3.4255,3.4294,3.4307,3.4326,3.4327,3.4469,3.447,3.4487,0,0,0,3.4033,3.4024,3.4064,3.4055,3.4129,3.4189,3.4136,3.4248,3.4261,3.4306,3.4326,3.4329,3.4469,3.447,3.4485,3.4497,0,0,0,3.4015,3.4022,3.4038,3.4054,3.4103,3.4188,3.4206,3.4251,3.4268,3.4324,3.4329,3.4468,3.447,3.4484,3.4495,3.4533,0,0,0,3.399,3.4049,3.4038,3.4109,3.4102,3.4198,3.4205,3.4277,3.4327,3.4326,3.4469,3.447,3.4483,3.4493,3.4531,3.4562,3.4574,0,0,3.4055,3.4056,3.4099,3.4093,3.4188,3.4182,3.4279,3.4338,3.4356,3.4431,3.4435,3.4486,3.4494,3.4532,3.4644,3.4653,0,0,0,3.4114,3.4145,3.4173,3.4222,3.4271,3.4313,3.436,3.4382,3.4447,3.4392,3.451,3.4516,3.4538,3.4554,3.4562,3.4583,3.4477,3.4477,3.4476,3.4181,3.4205,3.4278,3.4316,3.4363,3.4413,3.4452,3.449,3.4497,3.4525,3.4547,3.4612,3.463,3.4636,3.4658,3.4565,3.4566,3.4566,3.4566,3.4279,3.4327,3.4339,3.4415,3.4439,3.4502,3.4552,3.4556,3.4617,3.4597,3.4618,3.4593,3.4646,3.4666,3.4567,3.4567,3.4567,3.4567,3.4566,3.4326,3.4353,3.4382,3.4457,3.4511,3.4547,3.4607,3.4626,3.4644,3.4665,3.4692,3.4692,3.4694,3.4677,3.4677,3.4677,3.4678,3.4678,3.4678,3.4363,3.4395,3.4445,3.4505,3.454,3.4588,3.4641,3.4675,3.4718,3.4727,3.4728,3.4733,3.4647,3.4625,3.4681,3.4681,3.468,3.468,3.468,3.4453,3.4437,3.4513,3.4549,3.4622,3.4676,3.4702,3.4771,3.4802,3.4831,3.4833,3.4767,3.4768,3.4762,3.4744,3.4828,3.4828,3.4828,3.4828,3.4493,3.4497,3.4581,3.4638,3.4695,3.4727,3.4812,3.4854,3.4894,3.4915,3.4906,3.4884,3.4877,3.4882,3.4874,3.4857,3.4968,3.4968,3.4968,3.455,3.4561,3.4631,3.4673,3.4733,3.4783,3.4865,3.4928,3.4969,3.4975,3.4932,3.4926,3.4891,3.4878,3.4881,3.4867,3.4837,0,0]}]]